| time (UTC) | temp F | wind direction | speed MPH | gust MPH | rain 1hr in | rain 24hr in | rain mn in | humidity % | barometer mb |
| 20260506231537 | 69 | 187 | 0.0 | 3.0 | 0.00 | 0.00 | 0.00 | 80 | 1012.8 |
| 20260506230035 | 69 | 186 | 0.0 | 2.0 | 0.00 | 0.00 | 0.00 | 78 | 1013.2 |
| 20260506224537 | 70 | 0 | 0.0 | 2.0 | 0.00 | 0.00 | 0.00 | 78 | 1013.4 |
| 20260506223040 | 70 | 246 | 0.0 | 3.0 | 0.00 | 0.00 | 0.00 | 77 | 1013.7 |
| 20260506221541 | 70 | 248 | 1.0 | 5.0 | 0.00 | 0.00 | 0.00 | 77 | 1013.6 |
| 20260506220046 | 70 | 200 | 1.0 | 3.0 | 0.00 | 0.00 | 0.00 | 76 | 1013.6 |
| 20260506214540 | 70 | 227 | 1.0 | 9.0 | 0.00 | 0.00 | 0.00 | 76 | 1013.5 |
| 20260506213034 | 70 | 266 | 1.0 | 3.0 | 0.00 | 0.00 | 0.00 | 75 | 1013.5 |
| 20260506211534 | 70 | 221 | 1.0 | 4.0 | 0.00 | 0.00 | 0.00 | 75 | 1012.7 |
| 20260506210041 | 71 | 243 | 2.0 | 5.0 | 0.00 | 0.00 | 0.00 | 75 | 1012.8 |
| 20260506204540 | 71 | 311 | 2.0 | 8.0 | 0.00 | 0.00 | 0.00 | 74 | 1013.2 |
| 20260506203040 | 70 | 261 | 2.0 | 4.0 | 0.00 | 0.00 | 0.00 | 75 | 1013.3 |
| 20260506201540 | 70 | 278 | 1.0 | 7.0 | 0.00 | 0.00 | 0.00 | 76 | 1013.7 |
| 20260506200036 | 70 | 247 | 2.0 | 7.0 | 0.00 | 0.00 | 0.00 | 76 | 1013.8 |
| 20260506194537 | 70 | 281 | 2.0 | 13.0 | 0.00 | 0.00 | 0.00 | 76 | 1013.1 |
| 20260506193048 | 69 | 215 | 4.0 | 12.0 | 0.00 | 0.00 | 0.00 | 75 | 1013.6 |
| 20260506191537 | 69 | 233 | 3.0 | 15.0 | 0.00 | 0.00 | 0.00 | 75 | 1013.5 |
| 20260506190041 | 68 | 338 | 3.0 | 9.0 | 0.00 | 0.00 | 0.00 | 77 | 1013.5 |
| 20260506184538 | 68 | 294 | 2.0 | 12.0 | 0.00 | 0.00 | 0.00 | 77 | 1013.5 |
| 20260506183038 | 68 | 254 | 2.0 | 9.0 | 0.00 | 0.00 | 0.00 | 80 | 1013.7 |
| 20260506181558 | 67 | 205 | 1.0 | 6.0 | 0.00 | 0.00 | 0.00 | 84 | 1013.9 |
| 20260506180034 | 65 | 233 | 1.0 | 5.0 | 0.00 | 0.00 | 0.00 | 85 | 1014.3 |
| 20260506174538 | 64 | 0 | 0.0 | 4.0 | 0.00 | 0.00 | 0.00 | 85 | 1015.0 |
| 20260506173038 | 64 | 191 | 0.0 | 7.0 | 0.00 | 0.00 | 0.00 | 83 | 1015.5 |
| 20260506171535 | 65 | 219 | 0.0 | 6.0 | 0.00 | 0.00 | 0.00 | 81 | 1015.5 |
| 20260506170036 | 65 | 181 | 0.0 | 3.0 | 0.00 | 0.00 | 0.00 | 78 | 1015.6 |
| 20260506164533 | 65 | 238 | 1.0 | 3.0 | 0.00 | 0.00 | 0.00 | 79 | 1015.9 |
| 20260506163032 | 64 | 240 | 0.0 | 2.0 | 0.00 | 0.00 | 0.00 | 80 | 1015.6 |
| 20260506161540 | 64 | 215 | 0.0 | 2.0 | 0.00 | 0.00 | 0.00 | 80 | 1015.6 |
| 20260506160041 | 64 | 256 | 0.0 | 5.0 | 0.00 | 0.00 | 0.00 | 79 | 1015.5 |
| 20260506154544 | 65 | 216 | 1.0 | 4.0 | 0.00 | 0.00 | 0.00 | 76 | 1015.3 |
| 20260506153035 | 66 | 198 | 2.0 | 7.0 | 0.00 | 0.00 | 0.00 | 72 | 1014.8 |
| 20260506151535 | 66 | 272 | 1.0 | 5.0 | 0.00 | 0.00 | 0.00 | 72 | 1014.9 |
| 20260506150043 | 65 | 244 | 0.0 | 6.0 | 0.00 | 0.00 | 0.00 | 74 | 1015.1 |
| 20260506144536 | 64 | 0 | 1.0 | 8.0 | 0.00 | 0.00 | 0.00 | 74 | 1015.0 |
| 20260506143037 | 64 | 190 | 1.0 | 5.0 | 0.00 | 0.00 | 0.00 | 75 | 1014.7 |
| 20260506141536 | 64 | 186 | 1.0 | 3.0 | 0.00 | 0.00 | 0.00 | 74 | 1014.9 |
| 20260506140037 | 64 | 242 | 1.0 | 4.0 | 0.00 | 0.00 | 0.00 | 73 | 1014.7 |
| 20260506134535 | 64 | 245 | 1.0 | 7.0 | 0.00 | 0.00 | 0.00 | 73 | 1014.7 |
| 20260506133035 | 64 | 168 | 0.0 | 3.0 | 0.00 | 0.00 | 0.00 | 73 | 1014.9 |
| 20260506131552 | 64 | 194 | 1.0 | 9.0 | 0.00 | 0.00 | 0.00 | 72 | 1014.9 |
| 20260506130041 | 63 | 203 | 1.0 | 9.0 | 0.00 | 0.00 | 0.00 | 74 | 1014.8 |
| 20260506124536 | 62 | 281 | 1.0 | 5.0 | 0.00 | 0.00 | 0.00 | 76 | 1014.5 |
| 20260506123034 | 62 | 156 | 2.0 | 4.0 | 0.00 | 0.00 | 0.00 | 75 | 1015.0 |
| 20260506121541 | 62 | 223 | 2.0 | 6.0 | 0.00 | 0.00 | 0.00 | 75 | 1015.1 |
| 20260506120041 | 61 | 229 | 1.0 | 6.0 | 0.00 | 0.00 | 0.00 | 75 | 1015.3 |
| 20260506114540 | 61 | 242 | 1.0 | 4.0 | 0.00 | 0.00 | 0.00 | 76 | 1015.1 |
| 20260506113040 | 61 | 198 | 1.0 | 7.0 | 0.00 | 0.00 | 0.00 | 76 | 1014.7 |
| 20260506111537 | 61 | 138 | 1.0 | 3.0 | 0.00 | 0.00 | 0.00 | 76 | 1014.5 |
| 20260506110044 | 60 | 182 | 0.0 | 2.0 | 0.00 | 0.00 | 0.00 | 76 | 1014.8 |
| 20260506104548 | 60 | 250 | 0.0 | 3.0 | 0.00 | 0.00 | 0.00 | 76 | 1014.4 |
| 20260506103042 | 61 | 179 | 1.0 | 4.0 | 0.00 | 0.00 | 0.00 | 75 | 1014.2 |
| 20260506101540 | 61 | 241 | 1.0 | 5.0 | 0.00 | 0.00 | 0.00 | 75 | 1014.0 |
| 20260506100039 | 61 | 238 | 0.0 | 4.0 | 0.00 | 0.00 | 0.00 | 75 | 1014.1 |
| 20260506094547 | 61 | 218 | 1.0 | 5.0 | 0.00 | 0.00 | 0.00 | 75 | 1014.0 |
| 20260506093039 | 61 | 233 | 1.0 | 3.0 | 0.00 | 0.00 | 0.00 | 75 | 1014.4 |
| 20260506091541 | 61 | 158 | 1.0 | 4.0 | 0.00 | 0.00 | 0.00 | 75 | 1014.4 |
| 20260506090040 | 62 | 195 | 2.0 | 6.0 | 0.00 | 0.00 | 0.00 | 74 | 1014.4 |
| 20260506084543 | 62 | 167 | 1.0 | 5.0 | 0.00 | 0.00 | 0.00 | 74 | 1014.6 |
| 20260506083038 | 62 | 221 | 2.0 | 6.0 | 0.00 | 0.00 | 0.00 | 73 | 1014.6 |
| 20260506081537 | 63 | 222 | 1.0 | 5.0 | 0.00 | 0.00 | 0.00 | 72 | 1014.7 |
| 20260506073041 | 63 | 259 | 1.0 | 11.0 | 0.00 | 0.00 | 0.00 | 71 | 1014.9 |
| 20260506071545 | 63 | 242 | 2.0 | 7.0 | 0.00 | 0.00 | 0.00 | 70 | 1014.5 |
| 20260506061541 | 63 | 212 | 1.0 | 5.0 | 0.00 | 0.00 | 0.00 | 68 | 1015.0 |
| 20260506044543 | 65 | 180 | 2.0 | 10.0 | 0.00 | 0.00 | 0.00 | 60 | 1015.2 |
| 20260506043041 | 66 | 209 | 3.0 | 8.0 | 0.00 | 0.00 | 0.00 | 59 | 1015.0 |
| 20260506041557 | 66 | 274 | 1.0 | 9.0 | 0.00 | 0.00 | 0.00 | 57 | 1015.1 |
| 20260506040038 | 66 | 188 | 2.0 | 11.0 | 0.00 | 0.00 | 0.00 | 56 | 1015.2 |
| 20260506034543 | 66 | 205 | 0.0 | 6.0 | 0.00 | 0.00 | 0.00 | 55 | 1015.0 |
| 20260506033043 | 66 | 203 | 1.0 | 5.0 | 0.00 | 0.00 | 0.00 | 55 | 1014.9 |
| 20260506031546 | 65 | 213 | 1.0 | 5.0 | 0.00 | 0.00 | 0.00 | 56 | 1015.0 |
| 20260506030040 | 64 | 202 | 0.0 | 3.0 | 0.00 | 0.00 | 0.00 | 58 | 1015.2 |
| 20260506024547 | 63 | 213 | 0.0 | 2.0 | 0.00 | 0.00 | 0.00 | 59 | 1015.3 |
| 20260506023036 | 63 | 0 | 0.0 | 2.0 | 0.00 | 0.00 | 0.00 | 60 | 1015.3 |
| 20260506021533 | 63 | 0 | 0.0 | 2.0 | 0.00 | 0.00 | 0.00 | 59 | 1015.3 |
| 20260506020040 | 64 | 0 | 0.0 | 1.0 | 0.00 | 0.00 | 0.00 | 58 | 1015.4 |
| 20260506014543 | 64 | 0 | 0.0 | 0.0 | 0.00 | 0.00 | 0.00 | 59 | 1015.4 |
| 20260506013037 | 64 | 0 | 0.0 | 0.0 | 0.00 | 0.00 | 0.00 | 59 | 1015.3 |
| 20260506011540 | 65 | 0 | 0.0 | 2.0 | 0.00 | 0.00 | 0.00 | 57 | 1015.1 |
| 20260506010036 | 66 | 0 | 0.0 | 2.0 | 0.00 | 0.00 | 0.00 | 55 | 1015.0 |
| 20260506004541 | 68 | 0 | 0.0 | 1.0 | 0.00 | 0.00 | 0.00 | 52 | 1015.0 |
| 20260506003041 | 69 | 0 | 0.0 | 2.0 | 0.00 | 0.00 | 0.00 | 49 | 1014.9 |
| 20260506001541 | 71 | 205 | 0.0 | 2.0 | 0.00 | 0.00 | 0.00 | 46 | 1014.8 |
| 20260506000040 | 72 | 184 | 0.0 | 3.0 | 0.00 | 0.00 | 0.00 | 43 | 1014.7 |
| 20260505234541 | 73 | 188 | 1.0 | 3.0 | 0.00 | 0.00 | 0.00 | 42 | 1014.6 |
| 20260505233038 | 74 | 226 | 1.0 | 4.0 | 0.00 | 0.00 | 0.00 | 40 | 1014.6 |